Overview Statistics Trail Chart Weather Telemetry Raw packets
 

This is the latest recevied weather packets stored in our database for station/object ENMS. If no packets are shown the sender has not sent any weather packets the latest 10 day(s).

<< 1 2 3 4 5 >>
Time Temp. Humidity Pressure Rain* Wind** Luminosity Snow
1788600787 15° C 67% 1000 hPa - - - -
1788598987 12.78° C 81% 1000 hPa - - - -
1788597186 11.67° C 87% 1000 hPa - - - -
1788595386 11.67° C 87% 1000 hPa - - - -
1788591786 10° C 93% 999 hPa - - - -
1788588186 10° C 87% 999 hPa - - - -
1788586387 8.89° C 93% 999 hPa - - - -
1788584586 8.89° C 93% 999 hPa - - - -
1788582786 7.78° C 93% 999 hPa - - - -
1788580986 7.78° C 93% 999 hPa - - - -
1788579186 8.89° C 87% 998 hPa - - - -
1788577387 8.89° C 93% 998 hPa - - - -
1788575587 8.89° C 93% 998 hPa - - - -
1788573788 10° C 93% 998 hPa - - - -
1788571987 10° C 93% 998 hPa - - - -
1788570188 10.56° C 87% 998 hPa - - - -
1788568387 10.56° C 87% 998 hPa - - - -
1788566588 10.56° C 87% 998 hPa - - - -
1788564787 10.56° C 87% 998 hPa - - - -
1788562988 11.67° C 81% 998 hPa - - - -
1788561188 11.67° C 81% 998 hPa - - - -
1788559387 11.67° C 76% 998 hPa - - - -
1788557587 11.67° C 81% 998 hPa - - - -
1788553987 11.67° C 81% 998 hPa - - - -
1788552186 12.78° C 76% 998 hPa - - - -

* Rain since midnight (hover to see other rain measurements)
** Current wind speed in m/s (hover to see current wind gust speed)